Weather History for MHSC - May, 2014

Change the Weather History Date:

Monday, May 12, 2014

  Actual Average (MHTG) Record (MHTG)
Temperature  
Mean Temperature 77 °F -  
Max Temperature 85 °F 84 °F 95 °F (1998)
Min Temperature 69 °F 65 °F 60 °F (2012)
Cooling Degree Days 12    
Growing Degree Days 27 (Base 50)    
Moisture  
Dew Point 67 °F    
Average Humidity 66    
Maximum Humidity 97    
Minimum Humidity 34    
Precipitation  
Precipitation 0.00 in - - ()
Sea Level Pressure  
Sea Level Pressure 29.78 in    
Wind  
Wind Speed 5 mph ()    
Max Wind Speed 15 mph    
Max Gust Speed 20 mph    
Visibility 6.0 miles    
Events Rain , Thunderstorm    
Averages and records for this station are not official NWS values.
T = Trace of Precipitation, MM = Missing Value Source: Averaged Metar Reports

Daily Weather History Graph

Daily Weather History Graph

Search for Another Location

Airport or City:

Trip Planner

Search our weather history database for the weather conditions in past years. The results will help you decide how hot, cold, wet, or windy it might be!

Date:

Astronomy

May. 12, 2014 Rise Set
Actual Time 5:23 AM CST 6:09 PM CST
Civil Twilight 5:01 AM CST 6:32 PM CST
Nautical Twilight 4:34 AM CST 6:59 PM CST
Astronomical Twilight 4:07 AM CST 7:26 PM CST
Moon 4:26 PM CST (5/12) 3:39 AM CST (5/12)
Length of Visible Light 13h 31m
Length of Day
12h 46m
Waxing Gibbous, 95% of the Moon is Illuminated
May 12
Waxing Gibbous
May 14
Full
May 21
Last Quarter
May 28
New
Jun 5
First Quarter

Hourly Weather History & Observations

Time (CST) Temp. Heat Index Dew Point Humidity Pressure Visibility Wind Dir Wind Speed Gust Speed Precip Events Conditions
12:58 AM 72.1 °F - 69.8 °F 92% 29.78 in 6.2 mi South 3.5 mph - N/A   Clear
1:58 AM 72.9 °F - 67.8 °F 84% 29.78 in 6.2 mi ESE 6.9 mph - N/A   Mostly Cloudy
2:58 AM 75.7 °F - 67.6 °F 76% 29.77 in 6.2 mi South 5.8 mph - N/A   Overcast
3:58 AM 73.8 °F - 69.6 °F 87% 29.77 in 6.2 mi NNE 2.3 mph - N/A   Mostly Cloudy
4:54 AM 73.4 °F - 68.0 °F 83% 29.91 in 6.2 mi ESE 3.5 mph - N/A Rain Light Rain
4:58 AM 72.7 °F - 67.6 °F 84% 29.78 in 6.2 mi East 2.3 mph - 0.00 in Rain Light Rain
5:13 AM 73.4 °F - 68.0 °F 83% 29.92 in 6.2 mi ESE 2.3 mph - N/A   Mostly Cloudy
5:58 AM 73.4 °F - 69.3 °F 87% 29.82 in 6.2 mi WNW 2.3 mph - 0.00 in   Overcast
6:00 AM 70 °F - 69 °F 97% 29.81 in 2 mi Calm Calm - -   Mist
6:58 AM 75.4 °F - 68.5 °F 79% 29.83 in 6.2 mi SW 8.1 mph - N/A   Partly Cloudy
7:58 AM 78.8 °F - 69.1 °F 72% 29.84 in 6.2 mi North 4.6 mph - N/A   Clear
8:58 AM 81.5 °F 84.1 °F 67.3 °F 62% 29.84 in 6.2 mi NNW 4.6 mph - N/A   Clear
9:00 AM 73 °F - 69 °F 85% 29.86 in 6 mi Calm Calm - -   Smoke
9:58 AM 84.0 °F 86.8 °F 67.5 °F 57% 29.82 in 6.2 mi WNW 6.9 mph - N/A   Clear
10:58 AM 86.0 °F 88.8 °F 66.9 °F 53% 29.79 in 6.2 mi North 10.4 mph - N/A   Scattered Clouds
11:58 AM 88.3 °F 90.5 °F 65.7 °F 47% 29.78 in 6.2 mi NNW 11.5 mph - N/A   Mostly Cloudy
12:00 PM 81 °F - 68 °F 57% 29.82 in 6 mi South 2.3 mph - -   Smoke
12:58 PM 90.7 °F 92.4 °F 64.4 °F 42% 29.74 in 6.2 mi NNW 8.1 mph - N/A   Scattered Clouds
1:34 PM 91.4 °F 92.1 °F 62.6 °F 38% 29.86 in 6.2 mi North 12.7 mph - N/A   Clear
1:58 PM 91.8 °F 93.0 °F 63.3 °F 39% 29.70 in 6.2 mi North 13.8 mph - N/A   Clear
2:46 PM 93.2 °F 93.3 °F 60.8 °F 34% 29.82 in 6.2 mi North 15.0 mph 19.6 mph N/A   Clear
2:58 PM 92.5 °F 92.6 °F 61.5 °F 35% 29.68 in 6.2 mi NNW 12.7 mph - N/A   Clear
3:00 PM 82 °F - 69 °F 55% 29.74 in 6 mi South 2.3 mph - -   Smoke
3:58 PM 92.8 °F 92.8 °F 60.6 °F 34% 29.67 in 6.2 mi NW 11.5 mph - N/A   Overcast
4:58 PM 91.6 °F 91.3 °F 60.4 °F 35% 29.67 in 6.2 mi NNW 8.1 mph - N/A   Mostly Cloudy
5:58 PM 86.0 °F 90.4 °F 69.8 °F 58% 29.70 in 6.2 mi South 12.7 mph - N/A   Mostly Cloudy
6:00 PM 77 °F - 69 °F 70% 29.74 in 6 mi Calm Calm - - Thunderstorm Thunderstorm
6:58 PM 82.6 °F 85.7 °F 68.5 °F 62% 29.74 in 6.2 mi Variable 5.8 mph - N/A   Partly Cloudy
7:58 PM 81.0 °F 83.9 °F 68.7 °F 66% 29.76 in 6.2 mi North 3.5 mph - N/A   Overcast
8:58 PM 79.5 °F - 68.5 °F 69% 29.77 in 6.2 mi North 5.8 mph - N/A   Scattered Clouds
9:58 PM 77.5 °F - 69.8 °F 77% 29.79 in 6.2 mi NNW 10.4 mph - N/A   Mostly Cloudy
10:58 PM 76.3 °F - 69.8 °F 80% 29.78 in 6.2 mi North 10.4 mph - N/A   Clear
11:58 PM 74.8 °F - 69.4 °F 83% 29.78 in 6.2 mi NNW 4.6 mph - N/A   Mostly Cloudy